Location: Gudip?du
(17.0263°N, 80.8301°E)
Time: 11:44:58
(UTC+00:00)

Meteor PRIRODA - Pass Details

Date: 03 August 2024
Orbit: 427 x 442 km, 97.5° (Epoch: 11 September)

Event Time Altitude Azimuth Distance (km) Brightness Sun altitude
Exits shadow 14:00:03 - 166° (SSE) 1,768 6.1 -12.4°
Reaches altitude 10° 14:00:32 10° 166° (SSE) 1,562 5.8 -12.5°
Maximum altitude 14:03:53 82° 78° (ENE) 456 3.3 -13.2°
Drops below altitude 10° 14:07:16 10° 351° (N) 1,582 6.6 -14.0°
Sets 14:09:23 0° 350° (N) 2,489 7.7 -14.5°
